CAPE
nan nan nan nan nan nan nan nan nan nan nan 2 0 0 nan 3 nan nan 1 0 0 nan nan nan nan nan 5 35 45 45 55 81 115 115 143 141 124 124 101 75 75 61 46 35 35 25 18 21 21 27 28 21 14 14 3 nan nan nan nan nan nan nan 3 7 7 0 16 11 92 92 274 345 305 305 227 179 143 143 101 48 48 18 7 3 3 13
nan nan nan nan nan nan nan nan nan nan nan 1 2 2 1 nan nan nan nan nan nan nan nan nan nan nan nan 13 37 37 44 54 70 70 102 123 116 116 103 85 85 67 47 39 39 27 21 21 21 27 26 22 14 14 2 nan nan nan nan nan nan nan 0 7 7 1 17 13 35 35 156 301 325 325 287 205 169 169 93 38 38 20 11 2 2 8
nan nan nan nan nan nan nan nan nan nan nan 1 4 4 0 nan nan nan nan nan nan nan nan 0 0 nan nan 4 38 38 36 41 49 49 73 86 93 93 92 80 80 62 51 39 39 36 27 24 24 26 28 24 14 14 1 nan nan nan nan nan nan nan nan 4 4 2 0 4 4 4 55 163 263 263 242 177 110 110 43 17 17 16 5 nan nan 3
nan nan nan nan nan nan nan nan nan nan nan 4 6 6 nan nan 0 0 nan nan nan nan nan nan nan nan nan nan 23 23 33 38 47 47 62 73 78 78 82 72 72 58 47 45 45 42 37 25 25 23 25 25 13 13 3 nan nan nan nan nan nan nan nan 3 3 4 nan nan 2 2 3 44 115 115 118 63 2 2 0 1 1 3 3 0 0 1
0 0 nan nan nan nan nan nan nan nan 2 9 3 3 nan nan nan nan nan 0 0 1 1 nan nan nan nan nan 11 11 31 37 45 45 54 69 70 70 74 71 71 58 49 49 49 50 41 27 27 17 19 19 12 12 3 nan nan nan nan nan nan nan nan 1 1 2 nan nan nan nan nan nan nan nan nan nan nan nan nan nan nan 3 4 4 4 12
nan 0 0 0 0 nan nan nan nan nan 3 5 2 2 0 nan 0 0 2 2 2 6 1 nan nan nan nan nan 14 14 30 34 36 36 35 47 60 60 75 71 71 63 61 63 63 57 41 25 25 16 19 17 11 11 2 nan nan nan nan nan nan nan nan 1 1 3 nan nan nan nan nan nan nan nan nan nan nan nan nan nan nan 4 7 9 9 13
0 0 1 1 1 0 nan nan 0 0 4 8 4 4 nan nan 1 1 8 10 10 4 nan nan nan nan nan nan 13 13 25 26 23 23 21 23 45 45 67 69 69 68 68 74 74 64 42 25 25 17 17 15 13 13 2 nan nan nan nan nan nan nan nan 0 0 4 nan nan nan nan nan nan nan nan nan nan nan nan nan nan nan nan 2 8 8 9
1 1 1 0 0 1 0 0 2 2 13 16 8 8 1 5 6 6 5 nan nan nan nan nan nan nan nan nan nan nan nan nan 0 0 5 8 22 22 38 49 49 54 67 67 67 61 42 25 25 22 27 24 13 13 0 nan nan nan nan nan nan nan nan nan nan 3 nan nan nan nan nan nan nan nan nan nan nan nan nan nan nan nan nan nan nan 0
1 2 1 1 1 1 2 1 0 0 9 17 14 14 8 4 2 2 nan nan nan nan nan nan nan nan nan nan nan nan 0 2 1 1 4 4 13 13 24 44 44 57 59 56 56 47 38 24 24 17 25 25 16 16 1 nan nan nan nan nan nan nan nan nan nan 4 nan nan nan nan nan nan nan nan nan nan nan nan nan nan nan nan nan nan nan nan
1 1 2 2 2 2 3 3 0 0 1 12 13 13 13 7 2 2 0 nan nan nan nan nan nan nan nan nan nan nan nan 1 16 16 29 17 25 25 21 26 26 46 64 57 57 45 31 17 17 10 16 20 18 18 1 nan nan nan nan nan nan nan nan nan nan 3 nan nan nan nan nan nan nan nan nan nan nan nan nan nan nan nan nan nan nan nan
2 1 4 5 5 4 3 2 3 3 5 13 10 10 6 3 6 6 3 1 1 nan nan nan nan nan nan nan nan nan nan 2 10 10 18 15 13 13 13 19 19 56 76 64 64 49 25 11 11 6 9 18 16 16 2 nan nan nan nan nan nan nan nan nan nan 2 nan nan nan nan nan nan nan nan nan nan nan nan nan nan nan nan nan nan nan nan
2 3 5 7 7 4 3 1 2 2 9 17 11 11 7 3 6 6 6 5 5 2 nan nan nan nan nan nan nan nan nan 13 19 19 4 0 1 1 4 10 10 24 50 74 74 52 22 7 7 3 9 11 10 10 0 nan nan nan nan nan nan nan nan nan nan 0 nan nan nan nan nan nan nan nan nan nan nan nan nan nan nan nan nan nan nan nan
3 4 10 10 10 8 2 3 5 5 9 14 13 13 10 4 5 5 8 8 8 4 1 nan nan nan nan nan nan nan 9 25 8 8 0 nan 0 0 2 4 4 8 19 26 26 26 10 8 8 12 17 15 5 5 nan nan nan nan nan nan nan nan nan nan nan nan nan nan nan nan nan nan nan nan nan nan nan nan nan nan nan nan nan nan nan nan
5 8 12 10 10 4 3 3 5 5 11 14 13 13 11 5 4 4 6 5 5 3 4 2 2 nan nan 0 4 4 35 15 nan nan nan nan 0 0 2 4 4 3 7 14 14 19 14 10 10 11 20 14 4 4 nan nan nan 0 nan nan nan nan nan nan nan nan nan nan nan nan nan nan nan nan nan nan nan nan nan nan nan nan nan nan nan nan
7 9 13 10 10 3 2 3 5 5 8 10 10 10 12 7 7 7 6 3 3 4 5 2 2 nan nan 0 16 16 31 1 nan nan nan nan nan nan 0 4 4 4 5 12 12 18 32 24 24 16 16 6 0 0 nan nan nan 2 nan nan nan nan nan nan nan nan nan nan nan nan nan nan nan nan nan nan nan nan nan nan nan nan nan nan nan nan
8 13 18 7 7 2 1 3 6 6 7 9 13 13 14 8 5 5 4 5 5 8 7 2 2 nan nan 0 18 18 11 0 0 0 nan nan nan nan 0 6 6 4 4 10 10 19 57 35 35 19 20 4 1 1 nan nan nan 0 nan nan nan nan nan nan nan nan nan nan nan nan nan nan nan nan nan nan nan nan nan nan nan nan nan nan nan nan
12 19 14 4 4 1 1 2 5 5 10 13 16 16 13 6 4 4 4 6 6 9 8 3 3 1 nan nan 1 1 3 0 0 0 1 nan nan nan 0 6 6 6 6 7 7 18 73 44 44 26 21 3 1 1 0 nan nan nan nan nan nan nan nan nan nan nan nan nan nan nan nan nan nan nan nan nan nan nan nan nan nan nan nan nan nan nan
22 20 7 nan nan nan 1 2 5 5 12 16 13 13 10 3 2 2 4 8 8 10 6 3 3 2 0 0 nan nan nan 0 1 1 1 0 nan nan 0 6 6 8 7 6 6 14 59 42 42 15 22 4 3 3 1 nan nan nan nan nan nan nan nan nan nan nan nan nan nan nan nan nan nan nan nan nan nan nan nan nan nan nan nan nan nan nan
26 10 0 nan nan nan 0 2 4 4 10 14 12 12 6 1 3 3 6 12 12 9 4 3 3 3 1 0 0 0 nan 1 2 2 2 0 nan nan 0 5 5 7 7 7 7 16 53 39 39 19 8 7 4 4 1 nan nan nan nan nan nan nan nan nan nan nan nan nan nan nan nan nan nan nan nan nan nan nan nan nan nan nan nan nan nan nan
14 1 nan nan nan nan nan 2 6 6 12 21 14 14 2 2 2 2 5 13 13 7 3 2 2 1 1 1 0 0 nan 1 2 2 2 0 0 0 1 8 8 8 8 6 6 15 61 28 28 19 2 5 5 5 0 nan nan nan nan nan nan nan nan nan nan nan nan nan nan nan nan nan nan nan nan nan nan nan nan nan nan nan nan nan nan nan
6 nan nan nan nan nan nan 1 8 8 22 27 8 8 2 1 2 2 8 10 10 3 3 1 1 2 1 1 0 0 0 2 2 2 2 2 1 1 4 9 9 9 9 5 5 16 52 6 6 30 1 4 2 2 0 nan nan nan nan nan nan nan nan nan nan nan nan nan nan nan nan nan nan nan nan nan nan nan nan nan nan nan nan nan nan nan
1 nan nan nan nan nan 4 1 14 14 27 19 4 4 1 nan 1 1 6 6 6 2 2 2 2 2 2 2 0 0 0 3 2 2 1 1 2 2 6 15 15 17 12 5 5 14 44 23 23 24 3 1 2 2 nan nan nan nan nan nan nan nan nan nan nan nan nan nan nan nan nan nan nan nan nan nan nan nan nan nan nan nan nan nan nan nan
nan nan nan nan nan nan 2 1 6 6 15 3 3 3 nan nan 1 1 4 3 3 2 2 2 2 3 3 3 1 1 0 3 3 3 3 2 3 3 8 15 15 14 10 5 5 15 50 41 41 28 0 1 2 2 nan nan nan nan nan nan nan nan nan nan nan nan nan nan nan nan nan nan nan nan nan nan nan nan nan nan nan nan nan nan nan nan
0 nan nan nan nan nan 0 1 nan nan nan nan nan nan nan 0 1 1 3 3 3 1 3 5 5 5 3 2 0 0 0 2 7 7 10 8 7 7 5 9 9 10 7 5 5 19 55 46 46 35 nan 1 0 0 nan nan nan nan nan 0 0 nan nan nan nan nan nan nan nan nan nan nan nan nan nan nan nan nan nan nan nan nan nan nan nan nan
nan nan nan 0 0 11 5 3 5 5 1 1 2 2 4 20 27 27 8 3 3 2 5 5 5 2 0 3 nan nan nan 8 40 40 18 5 1 1 2 7 7 9 8 6 6 20 41 55 55 22 1 1 nan nan nan nan nan nan nan nan nan nan nan nan nan nan nan nan nan nan nan nan nan nan nan nan nan nan nan nan nan nan nan nan nan nan
20 29 35 51 51 102 116 130 121 121 87 35 14 14 9 17 15 15 2 3 3 6 8 3 3 0 nan nan nan nan nan 6 19 19 11 5 3 3 2 6 6 13 15 7 7 9 32 40 40 26 6 3 nan nan nan nan nan nan nan nan nan nan nan nan nan nan nan nan nan nan nan nan nan nan nan nan nan nan nan nan nan nan nan nan nan nan
87 97 115 119 119 118 109 103 109 109 124 103 42 42 19 15 17 17 10 9 9 6 3 0 0 nan nan nan nan nan nan 0 6 6 13 4 1 1 2 9 9 19 12 3 3 5 32 21 21 18 11 7 nan nan nan nan nan nan nan nan nan 0 nan nan nan nan nan nan nan nan nan nan nan nan nan nan nan nan nan nan nan nan nan nan nan nan
80 76 71 70 70 77 83 91 100 100 97 91 88 88 54 24 13 13 6 5 5 4 2 0 0 nan nan nan nan nan nan nan 4 4 11 1 1 1 5 13 13 13 7 3 3 4 20 34 34 14 13 9 nan nan nan nan nan nan nan nan nan nan nan nan nan nan nan nan nan nan nan nan nan nan nan nan nan nan nan nan nan nan nan nan nan nan
60 54 56 59 59 68 74 75 69 69 66 64 72 72 53 13 5 5 3 2 2 1 1 1 1 1 nan nan nan nan nan nan 8 8 4 2 2 2 5 9 9 9 7 3 3 3 9 20 20 16 14 9 1 1 nan nan nan nan nan nan nan nan nan nan nan nan nan nan nan nan nan nan nan nan nan nan nan nan nan nan nan nan nan nan nan nan
17 33 39 45 45 55 51 29 40 40 49 55 64 64 51 8 4 4 1 1 1 1 1 1 1 2 0 nan nan nan nan 1 1 1 2 2 2 2 5 6 6 8 7 3 3 11 nan 2 2 8 14 6 6 6 0 nan nan nan nan nan nan nan nan nan nan nan nan nan nan nan nan nan nan nan nan nan nan nan nan nan nan nan nan nan nan nan
nan nan nan 3 3 9 3 nan 14 14 38 49 47 47 27 1 nan nan 0 0 0 3 1 1 1 1 0 nan nan nan nan 2 nan nan 2 2 2 2 3 4 4 5 8 4 4 8 nan nan nan 3 9 7 3 3 0 nan nan nan nan nan nan nan nan nan nan nan nan nan nan nan nan nan nan nan nan nan nan nan nan nan nan nan nan nan nan nan
nan nan nan nan nan nan nan nan nan nan nan nan nan nan 7 8 5 5 2 4 4 5 3 1 1 1 1 1 nan nan nan nan nan nan 8 3 2 2 3 2 2 2 5 9 9 5 14 0 0 4 20 10 1 1 nan nan nan nan nan nan nan nan nan nan nan nan nan nan nan nan nan nan nan nan nan nan nan nan nan nan nan nan nan nan nan nan
0 nan nan nan nan nan nan nan nan nan nan nan nan nan nan 1 7 7 2 1 1 4 3 1 1 1 0 nan nan nan nan nan 1 1 15 5 1 1 2 1 1 1 2 5 5 7 16 12 12 2 24 11 0 0 nan nan nan nan nan nan nan nan nan nan nan nan nan nan nan nan nan nan nan nan nan nan nan nan nan nan nan nan nan nan nan nan
nan nan nan nan nan nan nan nan nan nan nan nan 0 0 0 nan nan nan 1 0 0 1 2 1 1 0 nan nan nan nan nan nan 2 2 12 3 1 1 0 0 0 1 2 2 2 5 8 11 11 6 20 5 nan nan nan nan nan nan nan nan nan nan nan nan nan nan nan nan nan nan nan nan nan nan nan nan nan nan nan nan nan nan nan nan nan nan
nan nan nan nan nan nan nan nan nan nan nan nan nan nan nan nan nan nan nan 0 0 0 0 0 0 0 nan nan nan nan nan nan 0 0 8 2 0 0 nan 0 0 2 2 1 1 3 3 4 4 2 11 5 nan nan nan nan nan nan nan nan nan nan nan nan nan nan nan nan nan nan nan nan nan nan nan nan nan nan nan nan nan nan nan nan nan nan
nan nan nan nan nan nan nan nan nan nan nan nan nan nan nan nan nan nan nan nan nan 1 3 1 1 1 nan nan nan nan nan nan nan nan 5 1 0 0 nan 0 0 1 1 2 2 3 2 3 3 2 6 1 nan nan nan nan nan nan nan nan nan nan nan nan nan nan nan nan nan nan nan nan nan nan nan nan nan nan nan nan nan nan nan nan nan nan
nan nan nan nan nan nan nan nan nan nan nan nan nan nan nan nan nan nan nan nan nan nan nan 3 3 2 5 nan nan nan nan nan nan nan 1 0 nan nan nan 0 0 2 1 0 0 3 2 2 2 6 11 nan nan nan nan nan nan nan nan nan nan nan nan nan nan nan nan nan nan nan nan nan nan nan nan nan nan nan nan nan nan nan nan nan nan nan
nan nan nan nan nan nan nan nan nan nan nan nan nan nan nan nan nan nan nan nan nan nan nan nan nan nan 5 9 1 1 nan nan nan nan 0 nan nan nan nan nan nan 0 1 1 1 3 2 1 1 5 nan 2 nan nan nan nan nan nan nan nan nan nan nan nan nan nan nan nan nan nan nan nan nan nan nan nan nan nan nan nan nan nan nan nan nan nan
nan nan nan nan nan nan nan nan nan nan nan nan nan nan nan nan nan nan nan nan nan nan nan nan nan nan nan 0 5 5 4 0 0 0 nan nan nan nan nan nan nan nan 1 1 1 2 2 2 2 4 nan 8 nan nan nan nan nan nan nan nan nan nan nan nan nan nan nan nan nan nan nan nan nan nan nan nan nan nan nan nan nan nan nan nan nan nan
nan nan nan 0 0 nan nan nan nan nan nan nan nan nan nan nan nan nan nan nan nan nan nan nan nan nan nan 1 2 2 2 nan 0 0 nan nan nan nan nan nan nan nan 0 1 1 1 1 1 1 2 2 4 nan nan nan nan nan nan nan nan nan nan nan nan nan nan nan nan nan nan nan nan nan nan nan nan nan nan nan nan nan nan nan nan nan nan
nan nan nan nan nan nan nan nan nan nan nan nan nan nan nan nan nan nan nan nan nan nan nan nan nan nan nan nan nan nan nan nan 0 0 nan nan nan nan 0 0 0 0 nan 0 0 0 1 1 1 2 2 nan nan nan nan nan nan nan nan nan nan nan nan nan nan nan nan nan nan nan nan nan nan nan nan nan nan nan nan nan nan nan nan nan nan nan
3 nan nan nan nan nan nan nan nan nan nan nan nan nan nan nan nan nan nan nan nan nan nan nan nan nan nan nan nan nan nan nan 0 0 nan nan 0 0 1 1 1 1 nan nan nan 0 1 2 2 2 1 nan nan nan nan nan nan nan nan nan nan nan nan nan nan nan nan nan nan nan nan nan nan nan nan nan nan nan nan nan nan nan nan nan nan nan
nan nan nan nan nan nan nan nan nan nan nan nan nan nan nan nan nan nan nan nan nan nan nan nan nan nan nan nan nan nan nan nan nan nan nan nan 0 0 1 1 1 nan nan nan nan nan 1 3 3 4 2 nan nan nan nan nan nan nan nan nan nan nan nan nan nan nan nan nan nan nan nan nan nan nan nan nan nan nan nan nan nan nan nan nan nan nan
nan nan nan nan nan nan nan nan nan nan nan nan nan nan nan nan nan nan nan nan nan nan nan nan nan nan nan nan nan nan nan nan nan nan nan nan 0 0 0 0 0 nan nan nan nan nan 0 1 1 1 1 nan nan nan nan nan nan nan nan nan nan nan nan nan nan nan nan nan nan nan nan nan nan nan nan nan nan nan nan nan nan nan nan nan nan nan
nan nan nan nan nan nan nan nan nan nan nan nan nan nan nan nan nan nan nan nan nan nan nan nan nan nan nan nan nan nan nan nan nan nan nan nan 3 3 0 nan nan nan nan nan nan 0 0 0 0 nan nan nan nan nan nan nan nan nan nan nan nan nan nan nan nan nan nan nan nan nan nan nan nan nan nan nan nan nan nan nan nan nan nan nan nan nan
nan nan nan nan nan nan nan nan nan nan nan nan nan nan nan nan nan nan nan nan nan nan nan nan nan nan nan nan nan nan nan nan nan nan nan nan nan nan nan nan nan nan nan nan nan nan nan nan nan nan nan nan nan nan nan nan nan nan nan nan nan nan nan nan nan nan nan nan nan nan nan nan nan nan nan nan nan nan nan nan nan nan nan nan nan nan
nan nan nan nan nan nan nan nan nan nan nan nan nan nan nan nan nan nan nan nan nan nan nan nan nan nan nan nan nan nan nan nan nan nan nan nan nan nan nan nan nan nan nan nan nan nan nan nan nan nan nan nan nan nan nan nan nan nan nan nan nan nan nan nan nan nan nan nan nan nan nan nan nan nan nan nan nan nan nan nan nan nan nan nan nan nan
nan nan nan nan nan nan nan nan nan nan nan nan nan nan nan nan nan nan nan nan nan nan nan nan nan nan nan nan nan nan nan nan nan nan nan nan nan nan nan nan nan nan nan nan nan nan nan nan nan nan nan nan nan nan nan nan nan nan nan nan nan nan nan nan nan nan nan nan nan nan nan nan nan nan nan nan nan nan nan nan nan nan nan nan nan nan
nan nan nan nan nan nan nan nan nan nan nan nan nan nan nan nan 7 7 nan nan nan nan nan nan nan nan nan nan nan nan nan nan nan nan nan nan nan nan nan nan nan nan nan nan nan nan nan nan nan nan nan nan nan nan nan nan nan nan nan nan nan nan nan nan nan nan nan nan nan nan nan nan nan nan nan nan nan nan nan nan nan nan nan nan nan nan
nan nan nan nan nan nan nan nan nan nan nan nan nan nan nan nan nan nan nan nan nan nan nan nan nan nan nan nan nan nan nan nan nan nan nan nan nan nan nan nan nan nan nan nan nan nan nan nan nan nan 1 nan nan nan nan nan nan nan nan nan nan nan nan nan nan nan nan nan nan nan nan nan nan nan nan nan nan nan nan nan nan nan nan nan nan nan
nan nan nan nan nan nan nan nan nan nan nan nan nan nan nan nan nan nan nan nan nan nan nan nan nan nan nan nan nan nan nan nan nan nan nan nan nan nan nan nan nan nan nan nan nan nan nan nan nan nan nan 1 nan nan nan nan nan nan nan nan nan nan nan nan nan nan nan nan nan nan nan nan nan nan nan nan nan nan nan nan nan nan nan nan nan nan
CIN
nan nan nan nan nan nan nan nan nan nan nan -17 -50 -50 nan -15 nan nan -14 -13 -13 nan nan nan nan nan -1 -0 -0 -0 -0 -0 -0 -0 -0 -0 -0 -0 -0 -0 -0 -0 -0 -0 -0 -0 -0 -0 -0 -0 -0 -0 -0 -0 -0 nan nan nan nan nan nan nan -0 -0 -0 -0 -67 -70 -43 -43 -13 -3 -1 -1 -1 -0 -1 -1 -1 -0 -0 -1 -65 -79 -79 -85
nan nan nan nan nan nan nan nan nan nan nan -14 -29 -29 -33 nan nan nan nan nan nan nan nan nan nan nan nan -0 -0 -0 -0 -0 -0 -0 -0 -0 -0 -0 -0 -0 -0 -0 -0 -0 -0 -0 -0 -0 -0 -0 -0 -0 -0 -0 -0 nan nan nan nan nan nan nan -0 -0 -0 -0 -64 -73 -61 -61 -31 -9 -2 -2 -1 -1 -1 -1 -1 -1 -1 -60 -80 -77 -77 -103
nan nan nan nan nan nan nan nan nan nan nan -21 -23 -23 -44 nan nan nan nan nan nan nan nan -5 -5 nan nan -8 -0 -0 -0 -0 -0 -0 -0 -0 -0 -0 -0 -0 -0 -0 -0 -0 -0 -0 -0 -0 -0 -0 -0 -0 -0 -0 -0 nan nan nan nan nan nan nan nan -0 -0 -0 -98 -84 -86 -86 -58 -30 -8 -8 -2 -2 -2 -2 -4 -63 -63 -93 -101 nan nan -90
nan nan nan nan nan nan nan nan nan nan nan -20 -30 -30 nan nan -20 -20 nan nan nan nan nan nan nan nan nan nan -0 -0 -0 -0 -0 -0 -0 -0 -0 -0 -0 -0 -0 -0 -0 -0 -0 -0 -0 -0 -0 -0 -0 -0 -0 -0 -0 nan nan nan nan nan nan nan nan -0 -0 -0 nan nan -106 -106 -94 -61 -26 -26 -22 -41 -59 -59 -82 -102 -102 -127 -100 -83 -83 -78
-5 -0 nan nan nan nan nan nan nan nan -3 -15 -35 -35 nan nan nan nan nan -29 -29 -17 -3 nan nan nan nan nan -0 -0 -0 -0 -0 -0 -0 -0 -0 -0 -0 -0 -0 -0 -0 -0 -0 -0 -0 -0 -0 -0 -0 -0 -0 -0 -0 nan nan nan nan nan nan nan nan -0 -0 -0 nan nan nan nan nan nan nan nan nan nan nan nan nan nan nan -104 -86 -75 -75 -67
nan -0 -2 -0 -0 nan nan nan nan nan -15 -25 -37 -37 -37 nan -22 -22 -15 -15 -15 -7 -14 nan nan nan nan nan -0 -0 -0 -0 -0 -0 -0 -0 -0 -0 -0 -0 -0 -0 -0 -0 -0 -0 -0 -0 -0 -0 -0 -0 -1 -1 -1 nan nan nan nan nan nan nan nan -0 -0 -0 nan nan nan nan nan nan nan nan nan nan nan nan nan nan nan -93 -73 -65 -65 -72
-0 -0 -3 -0 -0 -6 nan nan -2 -2 -8 -15 -27 -27 nan nan -27 -27 -11 -5 -5 -9 nan nan nan nan nan nan -0 -0 -0 -0 -0 -0 -0 -0 -0 -0 -0 -0 -0 -0 -0 -0 -0 -0 -0 -0 -0 -0 -0 -0 -1 -1 -2 nan nan nan nan nan nan nan nan -0 -0 -0 nan nan nan nan nan nan nan nan nan nan nan nan nan nan nan nan -78 -62 -62 -77
-3 -4 -6 -8 -8 -5 -14 -13 -13 -13 -12 -10 -10 -10 -21 -10 -14 -14 -27 nan nan nan nan nan nan nan nan nan nan nan nan nan -0 -0 -0 -0 -0 -0 -0 -0 -0 -0 -0 -0 -0 -0 -0 -0 -0 -0 -0 -0 -3 -3 -7 nan nan nan nan nan nan nan nan nan nan -0 nan nan nan nan nan nan nan nan nan nan nan nan nan nan nan nan nan nan nan -88
-8 -2 -6 -12 -12 -10 -6 -8 -36 -36 -28 -15 -11 -11 -3 -7 -12 -12 nan nan nan nan nan nan nan nan nan nan nan nan -0 -0 -0 -0 -0 -0 -1 -1 -0 -0 -0 -0 -0 -0 -0 -0 -0 -0 -0 -0 -0 -0 -3 -3 -9 nan nan nan nan nan nan nan nan nan nan -0 nan nan nan nan nan nan nan nan nan nan nan nan nan nan nan nan nan nan nan nan
-13 -7 -2 -4 -4 -13 -6 -0 -22 -22 -53 -28 -22 -22 -12 -3 -2 -2 -11 nan nan nan nan nan nan nan nan nan nan nan nan -0 -0 -0 -0 -0 -0 -0 -0 -0 -0 -0 -0 -0 -0 -0 -0 -0 -0 -0 -0 -0 -4 -4 -11 nan nan nan nan nan nan nan nan nan nan -0 nan nan nan nan nan nan nan nan nan nan nan nan nan nan nan nan nan nan nan nan
-11 -7 -6 -5 -5 -7 -13 -17 -19 -19 -39 -19 -12 -12 -9 -10 -6 -6 -0 -3 -3 nan nan nan nan nan nan nan nan nan nan -1 -0 -0 -0 -0 -0 -0 -0 -0 -0 -0 -0 -0 -0 -0 -0 -0 -0 -0 -0 -0 -3 -3 -15 nan nan nan nan nan nan nan nan nan nan -0 nan nan nan nan nan nan nan nan nan nan nan nan nan nan nan nan nan nan nan nan
-6 -4 -4 -5 -5 -10 -10 -14 -18 -18 -14 -2 -2 -2 -4 -18 -15 -15 -0 -0 -0 -5 nan nan nan nan nan nan nan nan nan -0 -0 -0 -2 -3 -0 -0 -0 -0 -0 -0 -0 -0 -0 -0 -0 -0 -0 -0 -0 -0 -5 -5 -20 nan nan nan nan nan nan nan nan nan nan -0 nan nan nan nan nan nan nan nan nan nan nan nan nan nan nan nan nan nan nan nan
-8 -5 -3 -4 -4 -4 -6 -3 -0 -0 -0 -0 -0 -0 -1 -7 -11 -11 -7 -0 -0 -2 -6 nan nan nan nan nan nan nan -1 -0 -1 -1 -2 nan -2 -2 -0 -0 -0 -0 -0 -0 -0 -1 -1 -0 -0 -0 -0 -0 -18 -18 nan nan nan nan nan nan nan nan nan nan nan nan nan nan nan nan nan nan nan nan nan nan nan nan nan nan nan nan nan nan nan nan
-5 -4 -3 -3 -3 -4 -3 -0 -0 -0 -0 -0 -1 -1 -2 -8 -7 -7 -1 -0 -0 -2 -3 -3 -3 nan nan -15 -6 -6 -0 -0 nan nan nan nan -2 -2 -0 -0 -0 -0 -0 -0 -0 -0 -2 -1 -1 -1 -0 -1 -27 -27 nan nan nan -2 nan nan nan nan nan nan nan nan nan nan nan nan nan nan nan nan nan nan nan nan nan nan nan nan nan nan nan nan
-4 -3 -2 -3 -3 -5 -5 -3 -0 -0 -0 -1 -7 -7 -3 -7 -3 -3 -0 -0 -0 -2 -3 -4 -4 nan nan -15 -4 -4 -1 -3 nan nan nan nan nan nan -0 -0 -0 -0 -0 -0 -0 -0 -2 -3 -3 -2 -12 -27 -43 -43 nan nan nan -3 nan nan nan nan nan nan nan nan nan nan nan nan nan nan nan nan nan nan nan nan nan nan nan nan nan nan nan nan
-5 -3 -2 -4 -4 -6 -5 -2 -0 -0 -1 -5 -3 -3 -0 -2 -2 -2 -0 -0 -0 -0 -0 -2 -2 nan nan -12 -5 -5 -3 -4 -3 -3 nan nan nan nan -3 -0 -0 -0 -0 -0 -0 -0 -1 -5 -5 -7 -9 -28 -38 -38 nan nan nan -8 nan nan nan nan nan nan nan nan nan nan nan nan nan nan nan nan nan nan nan nan nan nan nan nan nan nan nan nan
-5 -4 -6 -8 -8 -7 -6 -2 -1 -1 -3 -3 -2 -2 -1 -4 -3 -3 -0 -0 -0 -0 -0 -0 -0 -0 nan nan -11 -11 -7 -3 -2 -2 -1 nan nan nan -6 -0 -0 -0 -0 -0 -0 -0 -0 -5 -5 -7 -6 -29 -35 -35 -27 nan nan nan nan nan nan nan nan nan nan nan nan nan nan nan nan nan nan nan nan nan nan nan nan nan nan nan nan nan nan nan
-4 -5 -10 nan nan nan -5 -2 -2 -2 -5 -0 -1 -1 -2 -8 -5 -5 -0 -0 -0 -0 -0 -0 -0 -0 -0 -1 nan nan nan -4 -1 -1 -1 -1 nan nan -6 -1 -1 -0 -0 -0 -0 -0 -0 -5 -5 -10 -5 -27 -30 -30 -24 nan nan nan nan nan nan nan nan nan nan nan nan nan nan nan nan nan nan nan nan nan nan nan nan nan nan nan nan nan nan nan
-3 -10 -19 nan nan nan -4 -1 -0 -0 -0 -0 -1 -1 -1 -2 -0 -0 -0 -0 -0 -0 -0 -0 -0 -0 -0 -0 -6 -6 nan -3 -0 -0 -1 -1 nan nan -5 -1 -1 -0 -0 -0 -0 -0 -0 -6 -6 -13 -18 -28 -27 -27 -24 nan nan nan nan nan nan nan nan nan nan nan nan nan nan nan nan nan nan nan nan nan nan nan nan nan nan nan nan nan nan nan
-5 -20 nan nan nan nan nan -0 -0 -0 -0 -0 -1 -1 -1 -0 -0 -0 -0 -0 -0 -1 -2 -0 -0 -0 -0 -0 -6 -6 nan -4 -0 -0 -0 -1 -3 -3 -4 -0 -0 -0 -0 -0 -0 -0 -0 -4 -4 -9 -25 -30 -25 -25 -28 nan nan nan nan nan nan nan nan nan nan nan nan nan nan nan nan nan nan nan nan nan nan nan nan nan nan nan nan nan nan nan
-10 nan nan nan nan nan nan -1 -0 -0 -0 -0 -2 -2 -1 -0 -0 -0 -0 -0 -0 -2 -2 -0 -0 -0 -0 -1 -4 -4 -10 -3 -0 -0 -0 -1 -3 -3 -2 -0 -0 -0 -0 -0 -0 -0 -0 -7 -7 -3 -23 -29 -27 -27 -30 nan nan nan nan nan nan nan nan nan nan nan nan nan nan nan nan nan nan nan nan nan nan nan nan nan nan nan nan nan nan nan
-11 nan nan nan nan nan -0 -9 -0 -0 -0 -4 -2 -2 -0 nan -0 -0 -0 -2 -2 -3 -1 -0 -0 -0 -1 -1 -5 -5 -9 -2 -0 -0 -0 -0 -2 -2 -2 -0 -0 -0 -0 -0 -0 -0 -0 -1 -1 -4 -19 -33 -31 -31 nan nan nan nan nan nan nan nan nan nan nan nan nan nan nan nan nan nan nan nan nan nan nan nan nan nan nan nan nan nan nan nan
nan nan nan nan nan nan -4 -12 -8 -8 -1 -5 -0 -0 nan nan -0 -0 -0 -3 -3 -3 -1 -1 -1 -1 -2 -2 -7 -7 -9 -3 -1 -1 -0 -0 -1 -1 -1 -0 -0 -0 -0 -0 -0 -0 -0 -0 -0 -4 -22 -32 -33 -33 nan nan nan nan nan nan nan nan nan nan nan nan nan nan nan nan nan nan nan nan nan nan nan nan nan nan nan nan nan nan nan nan
-20 nan nan nan nan nan -12 -10 nan nan nan nan nan nan nan -1 -0 -0 -2 -4 -4 -6 -3 -1 -1 -1 -3 -2 -6 -6 -8 -5 -1 -1 -0 -0 -1 -1 -1 -0 -0 -0 -0 -1 -1 -0 -0 -0 -0 -3 nan -30 -34 -34 nan nan nan nan nan -0 -0 nan nan nan nan nan nan nan nan nan nan nan nan nan nan nan nan nan nan nan nan nan nan nan nan nan
nan nan nan -12 -12 -3 -3 -8 -1 -1 -9 -15 -14 -14 -0 -0 -0 -0 -4 -8 -8 -6 -2 -1 -1 -1 -2 -0 nan nan nan -5 -0 -0 -0 -0 -1 -1 -1 -0 -0 -0 -0 -2 -2 -0 -0 -0 -0 -4 -11 -25 nan nan nan nan nan nan nan nan nan nan nan nan nan nan nan nan nan nan nan nan nan nan nan nan nan nan nan nan nan nan nan nan nan nan
-0 -0 -0 -0 -0 -0 -0 -0 -0 -0 -0 -1 -5 -5 -5 -1 -2 -2 -8 -5 -5 -2 -1 -1 -1 -1 nan nan nan nan nan -6 -1 -1 -0 -0 -0 -0 -0 -0 -0 -0 -0 -2 -2 -0 -0 -0 -0 -2 -4 -13 nan nan nan nan nan nan nan nan nan nan nan nan nan nan nan nan nan nan nan nan nan nan nan nan nan nan nan nan nan nan nan nan nan nan
-0 -0 -0 -0 -0 -0 -0 -0 -0 -0 -0 -0 -0 -0 -3 -4 -1 -1 -1 -1 -1 -1 -1 -1 -1 nan nan nan nan nan nan -5 -2 -2 -0 -0 -0 -0 -0 -0 -0 -0 -0 -1 -1 -0 -0 -0 -0 -1 -1 -4 nan nan nan nan nan nan nan nan nan -0 nan nan nan nan nan nan nan nan nan nan nan nan nan nan nan nan nan nan nan nan nan nan nan nan
-0 -0 -0 -0 -0 -0 -0 -0 -0 -0 -0 -0 -0 -0 -0 -1 -0 -0 -1 -2 -2 -2 -0 -1 -1 nan nan nan nan nan nan nan -1 -1 -0 -0 -0 -0 -0 -0 -0 -0 -0 -0 -0 -0 -0 -0 -0 -1 -1 -1 nan nan nan nan nan nan nan nan nan nan nan nan nan nan nan nan nan nan nan nan nan nan nan nan nan nan nan nan nan nan nan nan nan nan
-0 -0 -0 -0 -0 -0 -0 -0 -0 -0 -0 -0 -0 -0 -0 -1 -1 -1 -1 -2 -2 -1 -0 -0 -0 -0 nan nan nan nan nan nan -0 -0 -0 -0 -0 -0 -0 -0 -0 -0 -0 -0 -0 -0 -0 -3 -3 -2 -1 -2 -8 -8 nan nan nan nan nan nan nan nan nan nan nan nan nan nan nan nan nan nan nan nan nan nan nan nan nan nan nan nan nan nan nan nan
-0 -0 -0 -0 -0 -0 -0 -0 -0 -0 -0 -0 -0 -0 -0 -1 -0 -0 -1 -1 -1 -0 -0 -0 -0 -0 -0 nan nan nan nan -1 -0 -0 -0 -0 -0 -0 -0 -0 -0 -0 -0 -0 -0 -0 nan -21 -21 -5 -2 -4 -2 -2 -8 nan nan nan nan nan nan nan nan nan nan nan nan nan nan nan nan nan nan nan nan nan nan nan nan nan nan nan nan nan nan nan
nan nan nan -0 -0 -0 -0 nan -0 -0 -0 -0 -0 -0 -0 -3 nan nan -3 -2 -2 -0 -0 -0 -0 -0 -0 nan nan nan nan -1 nan nan -0 -0 -0 -0 -0 -0 -0 -0 -0 -0 -0 -0 nan nan nan -12 -5 -4 -4 -4 -7 nan nan nan nan nan nan nan nan nan nan nan nan nan nan nan nan nan nan nan nan nan nan nan nan nan nan nan nan nan nan nan
nan nan nan nan nan nan nan nan nan nan nan nan nan nan -0 -0 -0 -0 -2 -1 -1 -1 -0 -0 -0 -0 -0 -0 nan nan nan nan nan nan -0 -0 -0 -0 -1 -0 -0 -0 -0 -0 -0 -0 -0 -0 -0 -6 -3 -2 -2 -2 nan nan nan nan nan nan nan nan nan nan nan nan nan nan nan nan nan nan nan nan nan nan nan nan nan nan nan nan nan nan nan nan
-0 nan nan nan nan nan nan nan nan nan nan nan nan nan nan -1 -0 -0 -0 -2 -2 -1 -0 -0 -0 -0 -1 nan nan nan nan nan -0 -0 -0 -0 -0 -0 -1 -0 -0 -0 -0 -0 -0 -0 -0 -0 -0 -0 -5 -3 -6 -6 nan nan nan nan nan nan nan nan nan nan nan nan nan nan nan nan nan nan nan nan nan nan nan nan nan nan nan nan nan nan nan nan
nan nan nan nan nan nan nan nan nan nan nan nan -0 -0 -1 nan nan nan -0 -1 -1 -1 -1 -1 -1 -1 nan nan nan nan nan nan -0 -0 -0 -0 -0 -0 -1 -1 -1 -0 -0 -0 -0 -0 -0 -0 -0 -0 -4 -6 nan nan nan nan nan nan nan nan nan nan nan nan nan nan nan nan nan nan nan nan nan nan nan nan nan nan nan nan nan nan nan nan nan nan
nan nan nan nan nan nan nan nan nan nan nan nan nan nan nan nan nan nan nan -1 -1 -1 -1 -1 -1 -1 nan nan nan nan nan nan -0 -0 -0 -0 -0 -0 nan -1 -1 -0 -0 -0 -0 -0 -0 -0 -0 -0 -4 -4 nan nan nan nan nan nan nan nan nan nan nan nan nan nan nan nan nan nan nan nan nan nan nan nan nan nan nan nan nan nan nan nan nan nan
nan nan nan nan nan nan nan nan nan nan nan nan nan nan nan nan nan nan nan nan nan -0 -0 -0 -0 -1 nan nan nan nan nan nan nan nan -0 -0 -0 -0 nan -1 -1 -0 -0 -0 -0 -0 -0 -0 -0 -0 -12 -8 nan nan nan nan nan nan nan nan nan nan nan nan nan nan nan nan nan nan nan nan nan nan nan nan nan nan nan nan nan nan nan nan nan nan
nan nan nan nan nan nan nan nan nan nan nan nan nan nan nan nan nan nan nan nan nan nan nan -0 -0 -0 -0 nan nan nan nan nan nan nan -0 -1 nan nan nan -1 -1 -0 -0 -0 -0 -0 -0 -0 -0 -0 -19 nan nan nan nan nan nan nan nan nan nan nan nan nan nan nan nan nan nan nan nan nan nan nan nan nan nan nan nan nan nan nan nan nan nan nan
nan nan nan nan nan nan nan nan nan nan nan nan nan nan nan nan nan nan nan nan nan nan nan nan nan nan -0 -0 -1 -1 nan nan nan nan -1 nan nan nan nan nan nan -0 -0 -0 -0 -0 -0 -0 -0 -0 nan -13 nan nan nan nan nan nan nan nan nan nan nan nan nan nan nan nan nan nan nan nan nan nan nan nan nan nan nan nan nan nan nan nan nan nan
nan nan nan nan nan nan nan nan nan nan nan nan nan nan nan nan nan nan nan nan nan nan nan nan nan nan nan -1 -0 -0 -0 -1 -1 -1 nan nan nan nan nan nan nan nan -0 -0 -0 -0 -0 -0 -0 -0 nan -16 nan nan nan nan nan nan nan nan nan nan nan nan nan nan nan nan nan nan nan nan nan nan nan nan nan nan nan nan nan nan nan nan nan nan
nan nan nan -0 -0 nan nan nan nan nan nan nan nan nan nan nan nan nan nan nan nan nan nan nan nan nan nan -0 -0 -0 -0 nan -0 -0 nan nan nan nan nan nan nan nan -1 -0 -0 -0 -0 -0 -0 -0 -0 -33 nan nan nan nan nan nan nan nan nan nan nan nan nan nan nan nan nan nan nan nan nan nan nan nan nan nan nan nan nan nan nan nan nan nan
nan nan nan nan nan nan nan nan nan nan nan nan nan nan nan nan nan nan nan nan nan nan nan nan nan nan nan nan nan nan nan nan -0 -0 nan nan nan nan -0 -0 -0 -0 nan -0 -0 -0 -0 -0 -0 -0 -0 nan nan nan nan nan nan nan nan nan nan nan nan nan nan nan nan nan nan nan nan nan nan nan nan nan nan nan nan nan nan nan nan nan nan nan
-0 nan nan nan nan nan nan nan nan nan nan nan nan nan nan nan nan nan nan nan nan nan nan nan nan nan nan nan nan nan nan nan -0 -0 nan nan -0 -0 -0 -0 -0 -0 nan nan nan -0 -0 -0 -0 -0 -0 nan nan nan nan nan nan nan nan nan nan nan nan nan nan nan nan nan nan nan nan nan nan nan nan nan nan nan nan nan nan nan nan nan nan nan
nan nan nan nan nan nan nan nan nan nan nan nan nan nan nan nan nan nan nan nan nan nan nan nan nan nan nan nan nan nan nan nan nan nan nan nan -0 -0 -0 -0 -0 nan nan nan nan nan -0 -0 -0 -0 -0 nan nan nan nan nan nan nan nan nan nan nan nan nan nan nan nan nan nan nan nan nan nan nan nan nan nan nan nan nan nan nan nan nan nan nan
nan nan nan nan nan nan nan nan nan nan nan nan nan nan nan nan nan nan nan nan nan nan nan nan nan nan nan nan nan nan nan nan nan nan nan nan -0 -0 -0 -0 -0 nan nan nan nan nan -0 -0 -0 -0 -0 nan nan nan nan nan nan nan nan nan nan nan nan nan nan nan nan nan nan nan nan nan nan nan nan nan nan nan nan nan nan nan nan nan nan nan
nan nan nan nan nan nan nan nan nan nan nan nan nan nan nan nan nan nan nan nan nan nan nan nan nan nan nan nan nan nan nan nan nan nan nan nan -0 -0 -0 nan nan nan nan nan nan -0 -0 -0 -0 nan nan nan nan nan nan nan nan nan nan nan nan nan nan nan nan nan nan nan nan nan nan nan nan nan nan nan nan nan nan nan nan nan nan nan nan nan
nan nan nan nan nan nan nan nan nan nan nan nan nan nan nan nan nan nan nan nan nan nan nan nan nan nan nan nan nan nan nan nan nan nan nan nan nan nan nan nan nan nan nan nan nan nan nan nan nan nan nan nan nan nan nan nan nan nan nan nan nan nan nan nan nan nan nan nan nan nan nan nan nan nan nan nan nan nan nan nan nan nan nan nan nan nan
nan nan nan nan nan nan nan nan nan nan nan nan nan nan nan nan nan nan nan nan nan nan nan nan nan nan nan nan nan nan nan nan nan nan nan nan nan nan nan nan nan nan nan nan nan nan nan nan nan nan nan nan nan nan nan nan nan nan nan nan nan nan nan nan nan nan nan nan nan nan nan nan nan nan nan nan nan nan nan nan nan nan nan nan nan nan
nan nan nan nan nan nan nan nan nan nan nan nan nan nan nan nan nan nan nan nan nan nan nan nan nan nan nan nan nan nan nan nan nan nan nan nan nan nan nan nan nan nan nan nan nan nan nan nan nan nan nan nan nan nan nan nan nan nan nan nan nan nan nan nan nan nan nan nan nan nan nan nan nan nan nan nan nan nan nan nan nan nan nan nan nan nan
nan nan nan nan nan nan nan nan nan nan nan nan nan nan nan nan -0 -0 nan nan nan nan nan nan nan nan nan nan nan nan nan nan nan nan nan nan nan nan nan nan nan nan nan nan nan nan nan nan nan nan nan nan nan nan nan nan nan nan nan nan nan nan nan nan nan nan nan nan nan nan nan nan nan nan nan nan nan nan nan nan nan nan nan nan nan nan
nan nan nan nan nan nan nan nan nan nan nan nan nan nan nan nan nan nan nan nan nan nan nan nan nan nan nan nan nan nan nan nan nan nan nan nan nan nan nan nan nan nan nan nan nan nan nan nan nan nan -1 nan nan nan nan nan nan nan nan nan nan nan nan nan nan nan nan nan nan nan nan nan nan nan nan nan nan nan nan nan nan nan nan nan nan nan
nan nan nan nan nan nan nan nan nan nan nan nan nan nan nan nan nan nan nan nan nan nan nan nan nan nan nan nan nan nan nan nan nan nan nan nan nan nan nan nan nan nan nan nan nan nan nan nan nan nan nan -0 nan nan nan nan nan nan nan nan nan nan nan nan nan nan nan nan nan nan nan nan nan nan nan nan nan nan nan nan nan nan nan nan nan nan
Wind_Speed
6 7 8 9 9 8 9 11 12 12 11 10 9 7 7 9 9 10 12 12 11 11 11 10 11 11 13 16 19 21 23 23 23 22 20 20 20 20 21 22 23 23 24 23 23 23 22 22 20 18 16 14 13 12 11 10 9 9 8 9 12 15 17 15 13 16 20 20 21 22 24 26 28 30 31 30 29 28 28 31 33 35 36 36 34 31
7 7 7 9 9 9 9 11 12 12 12 11 10 9 8 9 9 9 9 10 11 11 10 10 11 11 11 13 17 20 22 23 23 22 22 21 21 21 22 23 23 24 24 24 24 23 23 22 21 19 17 15 13 12 11 10 9 9 8 9 12 14 17 16 14 15 19 20 21 21 22 24 27 29 30 29 28 27 27 30 32 33 35 36 34 31
8 8 7 8 8 9 9 11 12 12 12 11 10 9 9 10 9 9 8 9 10 10 10 10 10 10 10 11 15 19 20 22 22 22 22 22 22 22 22 23 24 24 25 25 24 24 23 23 21 20 17 15 14 12 11 10 9 9 8 9 11 14 17 16 14 15 19 20 20 21 21 22 24 27 30 29 27 26 26 28 30 32 34 35 34 31
8 8 8 7 7 8 9 10 11 11 11 11 10 9 9 9 8 8 8 9 9 9 10 10 10 10 9 10 12 16 20 21 22 22 22 22 22 22 23 23 24 25 25 25 25 24 23 22 21 20 18 16 14 13 12 11 10 9 8 8 10 13 16 16 15 15 18 19 20 20 21 21 22 24 28 28 28 26 25 27 29 32 33 34 33 30
8 8 8 8 7 7 8 10 10 10 10 10 9 8 8 7 7 8 8 9 9 9 9 9 9 9 9 8 11 15 19 21 22 22 22 22 22 22 23 23 24 25 25 25 25 24 23 22 21 20 19 16 15 13 12 11 11 10 9 8 9 12 16 17 15 15 17 18 19 20 20 20 21 22 25 28 29 28 27 28 30 32 32 32 31 29
8 8 8 7 7 7 7 8 9 9 9 8 8 7 7 7 7 7 8 8 9 9 8 8 8 9 9 9 12 15 18 20 21 22 22 22 22 22 22 23 24 25 25 25 24 23 22 21 21 20 19 17 16 14 13 12 11 10 9 9 9 11 15 16 16 15 17 18 19 19 20 20 20 21 23 27 29 30 29 30 31 32 31 30 29 28
8 7 7 7 7 6 6 7 8 9 8 8 7 7 7 6 7 7 7 7 7 8 8 8 8 8 9 10 12 14 16 18 19 20 20 20 20 20 21 22 23 24 25 24 23 21 21 20 20 20 20 18 16 15 13 12 12 11 10 9 10 12 14 16 16 15 17 17 18 19 19 19 20 21 22 25 27 29 30 31 32 33 31 29 28 27
8 8 8 7 7 6 6 7 7 8 8 7 7 7 6 7 7 7 7 6 6 6 7 8 8 8 8 7 9 11 11 13 14 14 15 16 17 17 18 20 22 24 24 23 22 21 20 20 20 20 20 18 16 15 13 12 12 11 10 10 11 12 15 17 16 15 17 17 18 18 18 18 19 20 21 24 25 27 28 30 32 33 32 30 28 27
9 9 8 7 7 7 7 6 7 7 7 7 7 7 7 8 7 7 6 6 5 5 6 7 8 8 8 7 7 8 10 11 11 11 11 11 11 13 15 18 20 23 24 23 22 21 20 19 20 20 20 19 17 15 13 12 11 11 11 11 12 13 15 17 17 16 17 18 18 18 18 18 19 19 21 23 24 26 27 29 31 32 32 30 29 28
8 9 8 8 7 6 7 7 7 7 7 6 6 6 6 7 8 8 8 7 6 6 6 7 8 9 9 8 7 7 9 11 12 13 13 12 13 14 16 17 18 19 22 22 21 21 20 20 20 20 21 19 17 15 13 12 11 11 11 11 12 14 16 18 17 16 17 18 18 18 18 18 19 19 20 22 23 25 26 28 30 31 32 30 29 28
7 8 8 7 6 6 6 6 6 7 7 6 6 5 5 6 7 8 10 9 8 7 6 7 8 8 8 8 8 8 8 9 10 11 12 13 15 16 17 17 18 19 20 20 20 20 20 20 20 21 22 21 19 16 13 12 11 10 10 11 13 15 18 18 18 17 18 18 19 19 18 18 19 19 20 21 22 24 25 27 28 30 30 30 29 28
7 7 6 6 6 5 5 6 6 6 6 6 6 5 5 5 5 6 9 10 10 9 8 8 7 7 7 7 8 8 8 7 7 7 7 9 10 11 12 13 14 15 16 15 16 17 18 19 20 21 21 21 19 16 13 11 10 10 10 11 13 16 18 19 18 17 18 19 19 19 19 19 19 20 20 20 21 22 24 25 26 26 27 28 28 27
6 6 6 6 6 6 5 6 6 6 6 6 6 6 6 6 5 6 7 8 9 9 9 8 8 7 7 6 6 6 7 7 6 6 6 7 7 7 8 9 10 10 11 10 10 11 14 16 18 19 19 19 17 15 13 11 11 10 10 11 13 16 18 18 18 17 19 19 19 19 19 20 20 20 20 20 21 21 22 23 23 23 23 24 25 26
6 6 6 6 6 6 6 6 7 7 7 6 6 6 6 6 6 7 7 8 8 8 9 9 9 8 6 5 5 5 6 6 6 7 7 7 6 7 7 8 8 9 9 9 9 9 10 11 12 13 16 16 15 14 12 11 11 11 10 11 13 16 18 18 17 18 19 19 19 19 20 20 21 21 21 21 21 21 21 21 21 21 21 22 23 24
7 7 7 7 6 6 5 6 7 7 7 6 6 6 7 6 7 7 7 8 8 8 8 8 9 8 5 4 4 5 6 6 7 8 9 8 7 7 7 8 9 9 9 9 9 9 10 9 8 8 10 12 12 12 11 11 10 9 9 10 13 15 17 17 17 18 19 19 19 20 20 21 21 22 22 22 21 21 20 20 21 21 21 21 22 23
6 7 7 7 6 6 5 6 6 7 7 7 7 7 7 7 6 7 8 8 8 8 7 8 8 8 6 4 3 4 5 6 7 8 10 10 8 7 6 8 9 9 9 9 9 9 8 8 8 8 8 10 11 12 12 12 10 8 8 10 13 15 17 17 17 18 19 19 20 20 20 21 22 22 23 23 22 21 21 20 21 21 21 22 22 22
7 7 7 6 6 6 6 6 7 7 7 7 7 6 6 6 6 7 8 8 7 6 6 7 7 7 6 5 4 4 5 6 7 8 10 10 10 8 6 7 9 10 9 9 9 9 8 8 7 7 8 9 11 12 12 11 8 7 7 10 13 15 16 17 18 19 19 20 20 20 20 21 22 22 23 23 23 22 22 21 21 21 22 22 22 22
6 6 5 5 5 5 6 6 6 7 7 7 6 6 6 5 6 7 8 7 7 6 6 6 6 6 6 6 5 5 6 7 8 9 10 10 10 8 7 7 8 10 10 9 10 10 9 8 8 7 7 10 12 12 12 9 7 6 8 11 13 15 16 17 18 19 20 20 20 20 21 21 22 22 23 23 23 23 23 22 22 22 22 22 22 22
5 4 3 4 4 5 6 6 7 7 7 6 6 6 6 7 7 7 8 7 6 6 6 6 6 6 7 7 6 6 6 7 8 9 9 10 10 9 7 7 8 10 10 10 10 10 9 8 8 8 8 11 12 12 10 7 5 6 9 12 14 16 17 17 19 19 20 20 20 21 21 21 21 22 22 23 23 23 23 23 23 23 23 23 23 23
5 3 3 4 5 6 7 7 7 7 7 7 7 7 7 8 8 8 7 6 6 6 6 7 7 7 7 8 8 7 6 6 7 8 9 10 10 9 7 7 8 9 10 10 10 10 9 7 7 8 9 11 12 11 9 5 3 6 10 13 15 16 17 17 19 19 20 20 21 21 21 21 21 22 22 22 23 23 23 24 24 24 23 23 23 23
5 4 3 3 4 5 7 7 7 8 9 8 8 7 8 8 8 8 7 6 6 6 6 7 7 7 7 8 8 8 6 7 7 7 7 8 8 8 6 6 7 8 10 10 11 10 9 7 6 6 7 10 10 9 6 3 2 6 10 13 14 15 17 17 18 19 20 20 21 21 21 21 21 22 22 22 22 22 23 23 24 24 24 24 24 24
5 5 4 4 5 6 8 8 9 10 10 9 8 8 7 7 8 7 7 6 6 7 7 7 8 8 8 9 9 8 6 6 6 7 6 7 8 8 5 5 6 8 10 10 10 10 9 7 6 5 5 8 9 8 5 1 2 6 10 12 12 13 16 17 18 18 19 20 20 21 21 21 21 22 22 23 23 23 22 23 23 24 24 25 25 25
5 5 5 5 6 8 9 9 9 9 9 9 9 9 7 7 7 7 6 6 6 7 8 8 8 9 8 8 8 7 6 6 6 6 6 7 7 6 4 5 6 8 9 9 10 10 9 6 5 5 5 7 8 7 5 2 2 5 9 10 10 12 15 16 17 18 19 20 20 20 21 21 21 22 22 23 23 23 23 23 23 24 24 25 25 25
6 7 7 7 7 8 8 8 8 8 8 8 9 8 7 7 7 6 5 6 6 7 7 8 9 8 8 8 8 7 6 5 5 6 5 5 5 5 5 6 7 9 10 9 10 10 10 6 5 5 4 7 8 7 5 3 1 4 8 9 8 10 14 16 17 18 19 19 20 20 21 21 21 22 22 23 23 24 24 24 25 25 25 25 25 24
7 8 8 8 9 9 10 9 9 9 8 7 7 6 6 7 7 7 6 6 7 7 7 8 8 8 7 7 7 6 5 4 5 5 5 5 6 6 5 6 7 8 9 9 10 10 10 6 4 5 5 6 7 8 6 4 2 3 7 8 7 8 12 15 17 18 18 19 20 20 20 21 21 22 22 22 23 23 24 25 25 26 25 25 25 24
12 11 12 13 14 16 17 17 17 16 15 11 9 7 6 6 6 6 6 6 6 6 7 7 7 7 6 6 6 6 4 3 4 4 4 4 5 5 5 5 6 8 9 9 10 11 11 6 4 5 5 5 6 7 7 5 3 3 6 7 6 7 11 14 17 18 19 19 20 20 20 21 21 21 22 22 22 23 23 24 25 25 25 25 25 24
17 18 19 19 19 19 19 19 19 19 19 16 13 10 8 6 5 6 6 5 5 5 6 6 7 7 7 6 6 6 5 4 4 4 4 4 5 5 5 5 6 7 9 9 10 11 11 6 4 6 5 5 5 6 7 6 5 4 5 7 6 5 8 13 16 18 19 19 20 20 21 21 21 22 21 21 21 21 22 22 23 23 23 22 21 21
17 17 18 18 18 18 17 17 17 17 17 16 16 14 10 6 5 5 5 4 4 4 6 6 7 7 6 7 7 6 6 5 4 3 3 3 4 4 4 5 6 7 8 8 10 11 11 5 4 5 5 5 5 5 6 6 5 3 4 6 6 4 6 11 15 17 19 19 20 20 21 21 21 22 21 21 21 21 21 21 21 21 19 16 14 13
14 16 16 16 16 16 16 15 15 15 15 15 15 14 9 5 4 4 4 4 4 5 6 6 6 6 6 7 7 7 6 5 3 2 3 4 4 4 4 5 5 6 6 7 7 7 7 3 3 5 5 5 5 5 5 5 4 2 2 4 5 4 4 9 14 17 18 19 20 21 21 21 21 22 21 21 21 20 20 21 20 18 15 12 10 10
10 11 12 13 13 13 12 11 11 12 14 14 14 13 9 5 4 4 4 4 4 5 6 6 6 6 6 7 7 6 5 3 1 1 3 4 4 4 4 4 5 5 5 5 4 3 3 1 3 4 4 5 5 5 4 4 3 1 1 3 4 4 3 7 12 16 18 19 20 21 21 21 21 21 21 21 21 21 21 20 18 14 11 9 9 9
8 8 8 8 8 8 8 7 8 8 10 11 11 10 8 5 4 4 4 4 4 5 6 6 6 6 6 5 5 5 4 2 1 2 4 4 4 4 4 5 5 5 4 3 3 3 2 0 2 3 4 4 5 5 4 3 2 1 1 2 3 3 2 5 10 14 17 19 20 21 21 21 21 21 21 21 21 22 21 20 17 13 9 9 8 8
7 7 6 6 6 5 5 5 5 5 6 7 7 7 6 6 5 4 4 4 4 5 6 6 6 6 6 6 5 5 5 4 4 5 5 4 4 4 4 4 5 5 4 3 3 3 3 2 0 2 3 4 4 4 4 3 3 2 1 1 3 3 2 4 8 12 14 17 19 20 21 21 21 22 22 22 22 22 22 21 17 13 9 9 8 8
7 6 6 6 5 5 5 5 4 5 5 5 5 5 5 5 5 5 5 5 5 5 5 6 6 6 6 7 7 7 7 7 7 7 7 5 4 4 4 4 5 5 5 3 3 3 4 4 2 1 3 4 4 4 3 3 3 3 1 1 3 3 2 3 6 9 11 13 15 17 19 20 21 22 22 22 22 22 22 21 18 14 10 9 8 9
7 7 6 5 5 5 5 5 5 5 5 5 5 5 4 5 5 5 6 5 5 5 5 6 6 6 6 7 7 8 8 8 8 7 7 5 4 4 5 5 5 6 5 4 3 3 4 6 5 1 3 3 3 3 3 3 3 3 1 2 3 3 2 2 5 7 9 10 11 12 14 16 18 20 21 21 22 22 22 21 18 15 12 10 9 9
6 6 6 5 5 5 5 5 5 5 5 5 5 5 5 5 5 5 6 6 6 6 6 6 6 6 6 7 7 8 8 8 7 7 7 5 5 4 5 5 5 5 5 4 4 3 3 8 7 3 4 4 4 3 3 3 4 3 2 2 3 3 2 2 4 6 8 9 9 9 10 11 12 14 16 18 20 21 22 21 19 16 14 12 10 9
6 6 5 5 5 5 5 5 5 5 5 5 5 5 5 5 5 5 6 6 6 7 7 7 7 7 7 7 8 9 9 8 8 8 8 6 5 5 5 5 6 6 6 5 4 3 3 7 8 5 3 4 4 3 3 3 4 3 2 2 3 2 1 1 3 6 7 8 8 9 9 9 10 11 12 17 19 21 22 21 19 17 16 14 13 11
5 5 5 5 5 5 5 5 5 5 5 5 5 5 5 5 6 6 6 6 7 7 7 8 8 9 9 9 9 9 10 9 9 10 10 8 6 5 5 6 6 7 6 6 5 5 4 6 7 5 2 4 4 3 3 3 3 3 1 2 2 2 2 1 2 4 6 7 8 9 9 9 9 10 11 15 18 19 20 20 19 18 17 16 15 14
5 5 5 5 5 5 5 5 5 5 5 5 6 6 6 6 7 7 7 7 7 8 8 8 8 9 12 13 12 12 12 12 13 13 12 9 8 6 6 7 7 7 6 6 6 5 5 5 5 3 1 4 5 5 4 4 3 2 0 1 2 2 3 3 3 3 4 6 8 8 9 10 10 10 10 12 13 13 14 14 15 16 16 15 15 15
6 5 5 6 5 5 5 5 5 6 6 6 6 6 7 7 7 8 7 7 7 8 8 8 8 8 11 12 14 14 14 14 15 15 13 11 9 8 8 8 8 7 7 6 6 5 5 3 3 3 2 3 5 6 5 4 3 2 1 1 2 4 4 4 4 3 3 5 7 8 9 9 10 10 10 10 10 11 11 11 12 13 14 11 11 12
6 6 6 6 6 6 5 6 6 6 6 6 7 7 7 7 7 7 7 7 7 7 8 8 8 7 8 9 11 12 13 12 12 12 11 9 8 7 7 8 8 7 7 6 5 5 5 4 4 6 8 2 3 6 4 4 2 1 1 2 3 4 5 5 4 4 3 4 6 8 9 9 10 10 10 9 9 9 9 9 10 11 12 11 9 9
7 6 6 6 6 6 6 6 6 6 6 6 6 6 6 6 6 6 6 6 6 6 6 6 6 6 6 7 8 8 9 9 9 9 8 8 8 8 7 7 7 7 6 6 5 5 6 6 6 7 9 3 2 6 6 4 3 2 2 3 3 3 4 6 6 5 4 4 4 6 9 10 10 10 9 8 8 7 7 8 9 10 10 9 8 9
8 7 6 6 6 6 6 6 7 7 6 6 5 5 5 5 5 6 6 6 6 5 5 5 5 5 5 5 5 5 5 6 7 7 8 8 9 8 8 7 7 6 6 5 5 6 6 7 7 7 7 3 2 6 6 4 3 3 3 3 3 4 5 7 6 6 6 5 5 5 8 9 9 8 8 8 7 6 7 8 9 9 9 8 7 7
7 6 6 6 6 6 7 7 7 7 6 5 5 5 5 5 5 5 6 6 6 6 6 6 6 6 5 5 4 4 4 4 5 6 6 7 8 8 7 7 7 6 5 4 4 5 6 7 7 7 6 3 2 6 6 4 3 3 3 3 3 3 4 4 4 5 6 6 6 5 6 7 7 7 7 6 6 6 6 7 8 8 7 8 7 7
7 6 6 6 6 6 6 6 6 6 6 6 6 5 5 5 6 6 5 5 5 6 6 6 5 5 4 5 5 5 5 4 4 5 5 6 7 7 7 8 7 5 3 3 3 4 5 5 5 5 5 3 4 7 6 4 3 3 4 5 6 5 4 3 3 5 7 6 6 5 6 6 7 7 7 6 6 5 5 6 6 6 6 6 7 7
6 6 6 6 6 6 7 6 6 6 6 6 6 6 6 6 6 6 5 5 5 6 6 6 5 5 4 4 5 5 5 5 5 4 4 7 9 9 9 8 7 6 4 3 3 4 4 4 4 3 2 4 6 7 6 5 5 5 5 7 8 7 5 4 5 6 7 6 5 5 4 5 8 9 9 7 6 6 5 6 7 7 6 6 7 7
6 7 7 6 6 7 7 7 7 6 6 6 6 6 6 6 6 5 5 5 5 5 5 5 5 4 4 5 5 5 5 5 5 5 5 6 7 8 7 7 7 6 4 4 5 5 5 5 4 2 3 6 7 7 6 6 6 6 6 6 7 6 6 6 6 7 7 6 5 4 3 5 7 9 8 7 7 6 6 6 6 7 7 7 7 8
7 7 7 7 6 7 7 7 7 7 7 7 6 6 6 6 6 6 5 5 5 5 5 5 5 5 5 5 5 5 6 6 6 6 6 7 7 7 7 7 7 6 4 3 4 6 7 7 7 6 5 6 6 6 5 6 6 6 6 5 5 6 6 6 6 6 6 6 5 4 3 5 7 9 9 8 7 6 6 6 6 6 6 7 7 8
8 8 7 7 7 7 7 7 7 7 7 7 7 7 7 7 7 7 6 6 5 5 5 5 5 5 5 5 6 6 6 7 6 6 6 7 7 7 7 7 6 5 4 3 3 5 7 9 11 10 8 6 5 5 4 5 6 6 5 5 5 6 7 6 6 6 6 6 6 6 4 5 6 8 9 8 7 6 6 6 6 5 5 5 7 8
7 7 8 7 7 7 7 7 7 7 7 7 7 7 7 8 9 9 6 6 6 5 6 6 6 6 6 6 6 7 7 7 6 6 6 6 6 6 7 7 6 5 3 3 2 2 5 9 12 14 12 10 7 6 5 5 6 6 5 5 5 6 6 6 6 6 6 7 8 8 6 4 5 7 9 9 9 7 6 6 6 5 5 4 5 7
7 7 7 7 7 7 7 7 8 8 8 8 8 7 7 7 7 7 7 6 6 6 6 6 7 7 7 7 7 7 7 7 6 6 6 6 6 6 7 7 6 5 3 2 2 1 2 6 9 13 17 16 12 9 5 5 5 6 6 5 5 5 5 5 5 5 6 8 8 7 7 5 4 5 7 9 10 9 7 6 6 5 4 4 5 6
8 7 7 7 7 7 7 7 8 8 8 8 8 8 7 7 7 7 7 7 6 6 6 6 6 6 7 7 7 8 7 7 7 7 7 6 6 6 7 7 6 5 3 2 1 1 2 4 6 9 15 18 18 15 7 5 4 5 6 5 5 4 4 5 5 5 7 8 7 6 6 5 5 5 6 7 8 8 7 6 5 5 4 4 5 7
Wind_Direction
307 308 309 313 313 312 310 311 310 308 306 307 308 310 310 312 311 309 308 307 304 302 300 298 295 294 293 296 298 299 300 299 298 296 293 290 287 285 284 285 286 287 288 288 288 288 288 288 284 276 263 252 249 253 262 271 281 293 306 317 321 319 313 293 260 228 209 205 204 204 206 207 208 209 209 210 211 210 208 206 206 208 210 211 208 202
310 309 309 314 315 313 309 310 308 306 305 305 306 308 311 312 312 310 308 305 303 301 300 297 295 292 291 294 297 298 298 298 297 296 295 294 293 291 290 289 289 289 288 288 287 286 285 285 282 277 266 254 248 249 257 267 277 289 301 311 316 318 316 300 270 234 209 203 201 201 203 205 206 207 208 209 210 209 207 205 205 207 209 210 208 203
313 311 311 314 314 312 308 308 306 304 302 302 303 306 310 312 311 310 308 306 304 301 298 297 296 295 294 294 296 297 296 296 295 294 293 292 292 291 290 289 288 287 287 286 285 283 281 281 281 278 270 258 249 246 251 261 271 282 293 304 312 316 316 303 278 242 213 204 200 199 201 203 204 206 207 208 209 209 207 205 205 207 209 210 209 204
312 311 313 313 311 308 305 305 304 302 301 300 301 304 309 310 310 308 305 303 301 299 298 298 298 298 298 296 295 295 294 294 293 292 292 291 289 288 287 285 285 285 284 283 281 280 278 279 280 279 273 261 250 243 246 255 264 273 284 296 307 313 315 303 280 247 216 205 200 199 199 201 203 204 205 208 209 209 208 206 206 207 210 211 209 204
311 311 311 311 308 305 303 302 301 300 299 300 301 305 309 308 307 305 303 300 299 299 300 301 301 299 297 294 293 293 294 294 294 293 292 291 289 287 285 284 283 282 281 280 278 277 276 277 279 280 276 266 253 243 243 249 257 266 276 288 300 308 313 302 282 252 220 207 201 199 199 199 201 202 204 206 208 209 209 207 207 208 210 211 209 204
309 308 308 306 304 303 303 302 302 301 300 301 302 304 307 306 305 303 302 302 302 303 304 303 300 297 294 293 294 295 296 296 295 295 293 291 289 286 285 284 283 282 281 279 276 275 274 276 278 279 277 268 255 244 240 246 253 262 271 281 292 300 305 297 281 254 222 208 202 200 198 198 200 201 202 204 205 207 207 207 207 208 210 210 208 204
306 305 304 301 299 299 300 300 301 301 301 302 304 306 307 306 304 301 301 303 306 307 306 302 298 296 294 295 297 298 298 297 296 294 293 290 289 287 286 286 285 283 282 279 276 274 273 275 277 278 276 267 255 242 237 242 249 258 266 276 285 292 298 293 279 255 224 208 202 199 197 197 199 200 201 202 203 204 205 205 206 207 209 210 208 205
303 303 302 300 299 298 297 298 299 300 301 302 305 307 308 307 305 304 304 306 307 307 305 303 301 299 298 297 298 300 299 297 295 293 292 291 290 289 288 287 285 284 281 279 276 274 273 274 276 277 275 267 255 242 234 238 245 253 262 271 278 285 291 289 277 256 226 209 201 198 196 196 197 200 201 201 201 202 202 203 204 206 208 208 207 205
301 302 302 300 300 300 299 299 299 300 300 302 304 306 308 310 311 311 311 310 309 307 306 306 305 304 302 300 300 300 299 296 294 293 292 293 293 293 290 287 284 281 278 276 274 273 272 274 275 275 275 267 254 241 231 235 241 249 258 266 274 281 287 285 275 254 226 208 200 197 194 194 196 198 201 201 200 200 200 201 202 204 205 206 205 204
299 300 300 299 297 297 299 300 301 301 299 298 299 301 306 312 316 317 316 313 311 309 308 308 307 306 305 304 303 301 299 295 292 291 293 299 301 300 297 293 286 279 274 272 271 271 271 272 273 273 273 266 255 241 228 233 239 247 255 264 272 279 283 282 272 253 226 208 200 196 193 192 194 197 200 200 199 198 198 198 200 201 203 203 204 203
299 299 297 296 295 295 295 298 300 300 299 298 298 300 306 314 318 319 316 314 313 312 311 308 306 305 305 306 305 303 300 295 292 292 297 304 306 305 303 299 292 285 277 273 270 268 268 268 269 270 270 265 255 243 229 232 238 246 255 264 272 278 282 279 268 249 224 207 199 195 192 191 192 194 197 197 196 195 194 194 196 198 200 201 203 203
299 298 295 294 294 296 297 298 298 299 301 302 304 308 312 318 318 316 313 312 312 313 312 309 305 301 299 301 303 303 299 293 293 299 307 310 310 310 308 305 301 296 288 279 272 267 265 264 264 264 265 260 252 241 227 230 237 246 256 265 273 278 280 275 262 242 220 205 198 194 192 191 192 193 195 194 193 191 189 189 190 192 194 197 199 201
295 293 292 291 293 297 301 303 304 304 305 308 312 314 316 318 316 312 308 307 308 309 310 308 305 300 296 296 298 299 297 298 306 314 317 315 315 315 313 310 307 304 300 291 280 269 262 259 258 258 258 254 246 236 222 226 234 245 256 267 275 278 277 269 254 235 215 203 196 193 191 191 191 192 193 192 190 188 186 184 184 185 186 190 194 198
294 293 291 291 293 297 302 304 304 304 306 309 311 312 313 313 313 311 308 306 306 306 306 304 303 301 300 299 299 300 304 315 322 323 319 315 315 315 313 308 303 300 298 293 284 271 259 252 250 251 250 247 241 231 219 223 232 244 256 270 276 277 275 262 245 226 210 200 194 191 190 190 190 191 192 191 189 187 185 182 180 179 180 184 188 192
294 293 290 290 292 296 301 302 302 302 302 306 307 308 308 309 311 312 311 309 307 306 305 303 303 303 301 303 306 313 325 332 330 325 320 314 311 311 312 306 300 295 291 287 281 273 260 245 239 238 239 238 233 224 212 218 231 247 259 275 279 277 269 253 235 218 205 197 193 190 188 188 189 189 190 189 188 186 184 182 179 177 177 181 184 187
291 288 285 288 290 294 299 301 300 300 302 304 305 305 306 309 312 314 311 307 306 306 308 311 311 310 306 307 316 331 344 338 331 324 318 311 309 310 314 306 299 294 288 284 280 275 262 243 232 228 230 229 224 217 212 215 227 249 268 280 281 276 264 245 227 212 200 195 191 189 188 187 187 187 187 187 186 185 184 182 179 178 178 180 181 183
282 279 280 285 291 295 299 300 299 299 300 300 300 301 304 309 312 311 307 303 303 305 311 316 317 315 311 314 325 343 354 341 330 320 313 307 306 307 311 302 294 290 286 283 280 276 263 242 228 223 226 224 220 215 212 217 229 253 282 288 283 272 258 237 220 207 198 193 191 189 187 186 185 185 185 184 184 183 182 181 180 179 179 180 181 182
275 275 280 288 294 298 301 300 298 296 295 295 296 300 305 307 307 304 300 298 299 304 311 313 311 309 307 309 318 336 350 337 325 315 309 303 302 302 303 295 288 284 282 279 277 272 261 240 225 218 220 216 214 212 211 217 234 267 291 292 283 269 250 230 214 203 195 192 190 189 188 186 184 183 182 182 181 180 179 179 179 180 180 180 180 181
276 281 290 297 299 301 299 297 295 293 292 294 299 305 306 306 303 298 293 292 296 303 309 308 305 300 298 299 306 319 334 327 318 310 304 299 298 298 297 289 284 281 279 277 274 269 259 239 220 210 210 209 209 209 209 217 245 286 300 290 278 262 243 223 209 200 193 190 189 188 188 186 185 183 182 181 179 178 177 177 178 179 180 180 180 180
290 296 301 305 302 297 292 288 287 287 289 295 301 304 303 301 297 292 287 289 294 300 303 301 298 296 296 297 301 308 320 319 310 302 296 293 291 291 289 283 282 282 281 278 276 271 261 235 214 202 204 203 203 203 203 212 261 297 301 288 272 253 232 215 203 195 190 188 187 187 187 187 185 184 183 182 180 178 176 175 176 177 179 179 179 180
297 294 291 293 291 288 284 282 282 283 287 293 296 296 293 290 287 284 284 289 294 297 298 294 293 293 295 296 297 301 308 308 303 296 292 288 285 283 281 277 278 280 280 279 278 274 264 235 208 195 200 196 194 192 190 197 296 309 301 284 265 243 221 206 197 191 186 185 184 184 185 185 185 184 184 183 181 179 177 176 175 176 177 178 179 180
287 284 280 273 271 272 275 277 277 278 280 283 282 280 279 278 278 279 283 289 294 296 295 292 290 289 290 289 289 291 293 290 287 286 287 284 282 280 278 279 281 282 281 281 281 278 266 236 206 187 187 185 181 175 165 144 333 316 305 285 260 234 211 198 190 186 183 182 181 181 182 182 183 183 183 183 182 180 178 177 176 175 175 176 178 179
275 276 275 268 264 264 267 267 267 267 268 267 265 263 263 265 270 276 284 290 294 294 293 289 286 283 280 280 281 282 279 273 272 273 273 274 277 282 295 300 295 289 283 283 286 284 271 236 198 172 166 167 166 162 149 106 356 317 306 288 260 228 203 193 186 182 180 179 178 178 178 179 180 181 182 182 181 180 178 177 176 175 175 175 176 177
277 276 273 267 261 257 258 258 257 256 254 253 252 252 252 257 265 274 285 291 291 289 286 284 282 281 279 281 282 281 276 269 268 269 273 279 288 298 309 308 299 291 285 285 289 288 276 239 192 163 153 152 150 147 136 108 21 322 311 295 264 226 200 189 183 180 178 176 175 175 175 176 176 177 178 179 179 178 177 176 175 175 174 173 173 174
280 275 271 268 265 263 262 262 263 264 265 262 259 259 262 270 276 282 285 284 281 279 279 282 284 286 288 291 289 285 279 276 281 287 291 291 293 296 299 298 293 290 288 290 292 290 279 245 189 156 151 143 138 133 124 107 55 338 321 309 279 233 202 190 183 178 176 175 173 172 172 172 172 173 173 174 174 174 174 174 174 173 173 173 172 172
290 288 288 288 287 287 287 287 287 289 291 290 289 287 285 284 282 280 276 274 275 279 284 287 289 291 294 293 289 286 286 290 292 291 288 287 289 291 294 293 291 291 293 295 294 289 277 246 187 154 152 143 131 122 113 100 70 6 337 319 291 241 205 191 183 178 176 174 172 171 170 169 169 168 167 167 168 169 169 170 170 171 171 171 171 171
302 302 302 301 300 300 299 299 298 299 299 299 297 296 293 289 283 279 275 277 284 290 292 292 292 293 293 290 289 290 297 300 292 281 278 287 291 293 296 299 299 299 298 295 291 282 270 240 183 150 145 143 131 117 104 95 75 29 349 328 306 257 209 192 184 178 175 173 171 170 168 167 165 164 162 162 162 163 164 164 165 165 166 167 169 170
310 309 308 306 305 303 302 302 303 304 304 302 299 298 297 294 288 284 284 294 299 298 290 289 291 293 294 293 293 295 298 293 285 279 289 291 287 288 295 303 305 304 302 296 288 279 265 234 167 139 137 136 129 117 103 93 79 43 347 327 315 279 213 192 184 179 175 173 171 169 167 165 163 161 158 158 158 158 158 158 158 158 159 162 165 169
310 308 306 305 304 304 305 307 308 308 305 302 301 301 303 301 295 293 296 304 301 293 285 284 286 289 292 294 296 295 292 280 274 290 321 301 289 285 294 302 305 306 308 304 294 280 259 211 140 128 131 129 127 120 108 99 89 61 330 315 309 287 219 191 183 179 175 172 170 169 167 164 161 158 156 155 155 155 155 153 153 154 155 158 161 164
306 304 303 302 302 303 304 304 304 303 302 302 303 305 310 308 302 296 297 297 290 283 281 282 283 286 291 296 297 295 285 269 282 6 335 307 292 287 297 302 307 312 320 317 310 296 266 148 120 120 127 125 123 118 111 107 105 99 318 304 301 288 231 187 180 177 174 172 170 168 166 163 159 156 154 154 155 155 154 152 152 152 154 155 156 158
303 302 299 297 297 296 296 295 295 297 300 302 304 306 308 303 296 289 287 283 279 277 277 279 281 283 287 292 293 291 285 280 320 347 329 302 289 289 300 304 309 315 325 323 316 307 299 72 113 115 122 119 115 110 105 107 106 99 12 306 294 282 247 182 175 174 173 170 168 166 165 161 158 155 154 154 155 155 155 154 153 152 152 152 153 154
304 302 299 297 295 294 293 294 294 295 296 297 297 297 296 294 292 287 283 278 275 275 275 277 278 279 279 277 276 278 280 284 300 312 311 295 288 289 300 302 307 311 317 309 295 289 293 301 99 119 125 117 111 106 102 103 99 86 44 311 287 274 240 176 170 170 170 168 166 164 162 159 156 155 154 155 156 157 157 157 156 154 153 152 152 151
306 303 301 300 299 298 297 297 295 293 291 289 287 286 287 288 286 283 279 276 272 270 270 272 274 275 274 272 270 270 273 277 287 297 300 295 291 292 300 303 305 307 310 302 283 272 275 287 285 136 127 116 108 105 104 101 91 81 56 303 283 275 256 174 165 165 166 163 161 160 159 156 154 154 155 156 157 158 159 159 158 157 154 153 151 150
306 305 303 303 303 302 300 298 295 293 292 289 288 286 284 281 279 277 274 270 268 265 264 265 268 270 272 273 272 271 272 274 280 289 297 295 293 293 298 300 302 305 310 309 298 282 275 283 279 222 124 112 105 102 103 101 90 79 60 293 282 280 273 173 159 160 161 157 156 156 157 154 153 153 155 157 159 160 161 161 160 159 156 155 152 150
305 306 307 307 306 305 304 302 300 298 296 292 291 289 285 280 276 272 269 266 263 260 258 257 259 261 264 267 270 273 274 277 283 289 293 291 291 293 297 295 300 305 311 310 305 295 287 291 286 266 128 115 108 101 97 99 92 80 53 300 290 290 288 167 156 156 156 153 152 152 154 152 151 152 155 158 160 161 162 161 160 159 157 156 154 153
308 310 311 311 311 310 309 308 306 304 300 296 293 289 286 281 277 272 268 264 261 259 256 253 252 252 252 256 261 266 272 278 284 288 287 284 284 287 290 290 295 301 305 305 303 300 299 299 294 282 147 120 111 104 97 95 89 79 45 321 308 311 332 127 146 151 152 151 150 150 150 147 147 149 154 157 158 159 159 158 157 156 155 155 155 155
313 313 316 315 314 313 313 311 309 306 303 300 296 293 289 284 280 275 271 265 262 259 258 256 253 251 248 249 252 257 265 273 278 280 279 275 273 273 274 280 285 288 289 292 296 302 305 305 299 288 170 121 112 107 105 95 87 77 33 334 331 349 14 57 115 137 146 146 146 145 144 141 140 142 146 151 153 154 154 153 152 150 150 150 151 152
318 319 320 320 319 318 316 313 310 307 305 303 300 297 293 287 282 278 274 269 263 259 258 255 254 252 250 250 251 254 258 263 267 270 272 269 264 260 262 272 276 276 271 272 280 291 302 304 302 294 180 116 102 95 98 96 93 86 35 345 7 27 35 46 73 108 130 137 138 137 136 135 134 136 140 146 149 150 151 150 148 145 143 143 144 145
323 323 324 326 325 323 318 314 311 308 306 302 300 297 294 289 285 280 276 272 266 261 257 255 255 254 252 252 253 255 257 259 262 264 267 265 260 254 253 263 268 269 264 259 261 268 278 283 290 292 279 112 101 94 86 96 101 104 121 41 38 41 39 42 52 73 107 126 131 132 132 131 132 134 140 145 148 148 149 148 147 145 142 139 137 135
326 327 327 328 327 324 319 315 311 307 304 301 299 298 297 294 291 286 281 277 273 269 263 259 259 258 258 257 257 257 257 259 260 262 263 262 256 249 247 254 261 266 265 255 251 252 255 258 265 274 282 296 97 101 89 98 100 97 93 62 49 42 38 42 46 54 71 106 124 130 131 131 132 135 141 145 148 148 147 146 146 145 143 141 139 135
330 329 328 328 326 323 318 314 310 306 304 302 302 302 301 300 299 297 294 291 288 286 283 278 275 272 268 263 260 258 258 260 263 266 266 266 263 259 253 254 258 262 265 256 250 247 245 251 255 261 269 285 86 97 94 92 85 76 73 71 67 58 49 47 47 50 55 71 100 120 127 129 131 133 137 139 141 142 141 140 140 140 140 141 142 143
332 330 328 326 324 322 319 315 313 312 310 308 307 305 304 305 305 305 305 307 308 307 308 306 303 297 291 282 273 265 261 263 268 272 275 275 274 271 267 263 261 262 262 257 253 249 245 246 248 253 260 262 102 97 97 94 85 75 69 74 75 68 57 44 42 46 54 56 72 99 116 122 126 128 128 129 130 129 128 131 132 133 135 138 140 142
331 328 325 324 322 320 319 319 320 320 320 316 313 311 309 309 309 309 311 313 315 316 316 314 310 307 306 307 305 299 286 273 269 272 279 284 285 284 282 279 274 268 264 260 257 255 252 245 245 247 252 238 123 102 105 104 89 63 48 44 55 65 64 41 37 43 51 50 55 68 89 101 106 107 107 108 110 114 116 118 120 123 128 133 134 134
328 325 324 325 325 325 326 329 329 327 324 321 319 318 317 317 316 316 318 318 319 318 317 314 312 310 311 315 317 316 311 299 288 284 288 305 313 314 309 304 297 287 270 262 266 274 276 268 257 244 233 188 118 102 100 96 82 61 43 40 49 60 71 69 63 61 60 54 53 58 73 92 98 96 90 86 86 90 99 105 108 110 113 119 121 122
328 328 330 331 333 334 336 335 333 330 327 325 325 325 325 325 325 327 330 327 324 322 319 317 316 318 321 324 325 323 322 321 321 318 313 325 330 330 325 320 318 316 310 308 311 314 315 305 293 273 181 118 104 98 98 93 84 73 61 55 56 60 62 67 72 72 69 60 53 53 68 96 102 100 93 85 80 80 85 95 101 104 106 109 112 116
335 335 336 337 337 338 338 337 335 332 331 331 332 332 332 331 332 334 336 333 330 326 323 322 323 324 327 328 329 330 332 334 336 337 336 337 337 337 332 325 324 326 332 342 349 352 347 336 330 348 86 94 91 87 91 92 88 81 73 65 63 62 60 59 62 65 67 62 50 41 46 86 95 96 94 88 80 73 70 78 90 100 106 108 111 115
341 340 339 338 339 339 340 339 338 336 336 337 338 338 338 336 337 339 341 339 337 333 332 330 330 330 329 332 334 337 339 340 340 340 339 338 337 336 335 327 322 319 313 336 1 12 12 7 9 21 59 80 84 80 75 79 81 82 78 71 67 63 59 55 55 57 61 58 48 38 42 80 92 95 96 92 85 74 63 62 69 80 93 106 111 113
342 341 340 339 340 341 341 342 341 341 340 340 340 340 341 342 344 346 343 343 343 343 343 341 339 338 337 340 342 343 344 342 340 338 337 337 337 336 336 331 323 314 303 314 358 24 31 30 32 34 42 56 70 76 70 69 72 75 75 70 68 66 63 56 53 54 59 54 45 37 39 77 98 105 104 97 89 78 68 63 60 61 66 94 108 114
344 343 342 341 342 343 344 344 344 344 344 344 343 343 342 343 347 348 345 345 348 350 351 348 346 344 343 344 344 345 346 343 340 337 336 336 335 334 335 334 329 320 303 295 314 18 42 46 46 45 43 45 51 60 64 65 67 70 69 65 65 66 65 60 57 60 64 61 51 43 38 55 88 104 106 99 94 86 77 71 64 58 52 73 97 111
347 346 345 344 345 346 346 346 347 347 346 347 346 345 343 345 346 348 346 348 351 354 355 352 349 347 346 345 345 345 346 344 341 339 339 337 336 335 336 336 333 327 312 294 293 336 34 49 49 46 42 39 39 40 49 55 64 68 67 60 59 63 68 64 62 64 71 70 63 54 46 47 63 85 97 98 96 91 83 77 69 60 52 67 89 105
348 349 349 348 347 347 347 349 350 350 349 349 348 347 346 347 348 348 349 351 354 356 357 355 353 351 350 347 345 344 345 344 343 342 339 337 336 336 337 338 336 332 323 318 331 0 28 44 46 42 36 31 29 29 34 35 51 67 69 59 55 59 69 67 64 64 68 71 68 63 54 50 54 69 88 97 97 93 86 81 75 66 60 77 93 105